FW1304 Weather Reports


Display with metric or nautical units.
time (UTC)temp
F
wind
direction
speed
MPH
gust
MPH
rain 1hr
in
rain 24hr
in
rain mn
in
humidity
%
barometer
mb
20260505223858 49 319 0.0 5.0 0.00 0.00 0.00 42 1008.3
20260505223354 49 336 0.0 4.0 0.00 0.00 0.00 41 1008.3
20260505222836 49 302 0.0 5.0 0.00 0.00 0.00 40 1008.1
20260505222343 49 297 0.0 5.0 0.00 0.00 0.00 41 1008.1
20260505221818 49 292 0.0 4.0 0.00 0.00 0.00 40 1008.3
20260505221322 49 235 0.0 2.0 0.00 0.00 0.00 41 1008.1
20260505220837 49 300 0.0 4.0 0.00 0.00 0.00 40 1008.1
20260505220323 49 304 0.0 4.0 0.00 0.00 0.00 41 1008.1
20260505215819 49 306 1.0 4.0 0.00 0.00 0.00 40 1008.3
20260505215335 49 275 0.0 5.0 0.00 0.00 0.00 41 1008.2
20260505214831 49 277 1.0 5.0 0.00 0.00 0.00 40 1008.3
20260505214333 49 273 0.0 4.0 0.00 0.00 0.00 41 1008.2
20260505213817 49 310 0.0 2.0 0.00 0.00 0.00 40 1008.3
20260505213313 49 259 0.0 4.0 0.00 0.00 0.00 41 1008.3
20260505212816 50 269 1.0 5.0 0.00 0.00 0.00 40 1008.4
20260505212353 50 335 0.0 5.0 0.00 0.00 0.00 39 1008.3
20260505211819 50 255 1.0 4.0 0.00 0.00 0.00 40 1008.3
20260505211318 50 285 0.0 4.0 0.00 0.00 0.00 42 1008.4
20260505210814 49 318 0.0 5.0 0.00 0.00 0.00 42 1008.4
20260505210352 49 284 0.0 5.0 0.00 0.00 0.00 42 1008.5
20260505205827 49 285 0.0 8.0 0.00 0.00 0.00 42 1008.6
20260505205324 49 307 0.0 4.0 0.00 0.00 0.00 41 1008.5
20260505204831 49 331 0.0 4.0 0.00 0.00 0.00 41 1008.6
20260505204315 49 338 0.0 4.0 0.00 0.00 0.00 42 1008.5
20260505203831 49 326 0.0 5.0 0.00 0.00 0.00 42 1008.5
20260505203319 49 302 0.0 4.0 0.00 0.00 0.00 43 1008.5
20260505202824 48 323 1.0 5.0 0.00 0.00 0.00 42 1008.6
20260505202321 48 324 0.0 5.0 0.00 0.00 0.00 42 1008.5
20260505201829 49 44 0.0 5.0 0.00 0.00 0.00 43 1008.6
20260505201403 48 329 0.0 4.0 0.00 0.00 0.00 42 1008.7
20260505200836 48 313 0.0 4.0 0.00 0.00 0.00 41 1008.6
20260505200323 48 285 0.0 4.0 0.00 0.00 0.00 42 1008.7
20260505195820 48 311 0.0 2.0 0.00 0.00 0.00 44 1008.7
20260505195316 48 294 0.0 5.0 0.00 0.00 0.00 43 1008.6
20260505194824 48 332 1.0 5.0 0.00 0.00 0.00 43 1008.7
20260505194326 48 334 0.0 11.0 0.00 0.00 0.00 42 1008.7
20260505193844 48 252 0.0 11.0 0.00 0.00 0.00 42 1008.6
20260505193340 48 332 0.0 2.0 0.00 0.00 0.00 42 1008.5
20260505192822 48 314 0.0 2.0 0.00 0.00 0.00 43 1008.5
20260505192325 48 313 0.0 4.0 0.00 0.00 0.00 42 1008.6
20260505191822 48 286 1.0 6.0 0.00 0.00 0.00 43 1008.7
20260505191325 48 294 0.0 2.0 0.00 0.00 0.00 43 1008.7
20260505190902 47 323 0.0 1.0 0.00 0.00 0.00 43 1008.6
20260505190327 47 323 0.0 2.0 0.00 0.00 0.00 43 1008.7
20260505185830 48 286 0.0 2.0 0.00 0.00 0.00 43 1008.7
20260505185327 48 321 0.0 0.0 0.00 0.00 0.00 43 1008.7
20260505184814 47 306 0.0 1.0 0.00 0.00 0.00 45 1008.7
20260505184315 47 312 0.0 1.0 0.00 0.00 0.00 42 1008.7
20260505183850 47 344 0.0 1.0 0.00 0.00 0.00 43 1008.7
20260505183325 47 311 0.0 2.0 0.00 0.00 0.00 44 1008.7
20260505182821 47 315 0.0 2.0 0.00 0.00 0.00 43 1008.7
20260505182320 48 273 0.0 2.0 0.00 0.00 0.00 43 1008.6
20260505181827 48 315 0.0 2.0 0.00 0.00 0.00 43 1008.6
20260505181327 47 252 0.0 4.0 0.00 0.00 0.00 42 1008.6
20260505180824 47 308 0.0 5.0 0.00 0.00 0.00 42 1008.6
20260505180357 47 309 1.0 4.0 0.00 0.00 0.00 43 1008.6
20260505175822 47 304 0.0 6.0 0.00 0.00 0.00 43 1008.6
20260505175328 47 267 0.0 6.0 0.00 0.00 0.00 43 1008.6
20260505174822 47 280 0.0 6.0 0.00 0.00 0.00 42 1008.6
20260505174325 47 288 0.0 6.0 0.00 0.00 0.00 42 1008.6
20260505173830 47 296 0.0 2.0 0.00 0.00 0.00 43 1008.7
20260505173346 46 271 0.0 2.0 0.00 0.00 0.00 44 1008.7
20260505172850 46 314 0.0 5.0 0.00 0.00 0.00 43 1008.6
20260505172316 47 275 0.0 5.0 0.00 0.00 0.00 43 1008.6
20260505171815 47 269 0.0 5.0 0.00 0.00 0.00 43 1008.7
20260505171317 47 328 0.0 2.0 0.00 0.00 0.00 42 1008.7
20260505170826 47 261 0.0 3.0 0.00 0.00 0.00 42 1008.7
20260505170322 47 244 0.0 4.0 0.00 0.00 0.00 44 1008.6
20260505165822 47 305 1.0 4.0 0.00 0.00 0.00 43 1008.7
20260505165330 47 234 0.0 5.0 0.00 0.00 0.00 47 1008.6
20260505164827 47 296 0.0 5.0 0.00 0.00 0.00 42 1008.5
20260505164322 47 321 0.0 4.0 0.00 0.00 0.00 44 1008.5
20260505163836 46 306 0.0 4.0 0.00 0.00 0.00 44 1008.6
20260505163323 46 269 0.0 5.0 0.00 0.00 0.00 44 1008.7
20260505162821 47 278 1.0 5.0 0.00 0.00 0.00 43 1008.6
20260505162318 47 348 0.0 4.0 0.00 0.00 0.00 45 1008.6
20260505161825 47 298 0.0 5.0 0.00 0.00 0.00 44 1008.6
20260505161327 47 297 1.0 5.0 0.00 0.00 0.00 44 1008.6
20260505160824 46 289 0.0 5.0 0.00 0.00 0.00 45 1008.6
20260505160340 46 296 0.0 5.0 0.00 0.00 0.00 46 1008.7
20260505153314 45 328 0.0 4.0 0.00 0.00 0.00 48 1008.6
20260505152845 45 333 1.0 4.0 0.00 0.00 0.00 48 1008.6
20260505152401 45 234 0.0 2.0 0.00 0.00 0.00 48 1008.5
20260505151827 44 339 0.0 5.0 0.00 0.00 0.00 48 1008.5
20260505151320 45 289 0.0 5.0 0.00 0.00 0.00 47 1008.4
20260505150815 45 273 0.0 1.0 0.00 0.00 0.00 49 1008.6
20260505150352 45 294 0.0 1.0 0.00 0.00 0.00 48 1008.5
20260505140331 42 274 0.0 0.0 0.00 0.00 0.00 50 1008.1
20260505124829 39 273 0.0 1.0 0.00 0.00 0.00 55 1007.4
20260505124325 39 338 0.0 0.0 0.00 0.00 0.00 57 1007.5
20260505123822 39 320 0.0 1.0 0.00 0.00 0.00 57 1007.4
20260505123338 38 340 0.0 4.0 0.00 0.00 0.00 59 1007.4
20260505122820 38 318 0.0 1.0 0.00 0.00 0.00 60 1007.3
20260505122328 38 312 0.0 1.0 0.00 0.00 0.00 61 1007.2
20260505121824 38 308 0.0 1.0 0.00 0.00 0.00 63 1007.1
20260505121325 37 318 0.0 0.0 0.00 0.00 0.00 64 1007.1
20260505120842 37 255 0.0 0.0 0.00 0.00 0.00 65 1007.0
20260505120326 37 300 0.0 1.0 0.00 0.00 0.00 66 1007.0
20260505115829 37 278 0.0 1.0 0.00 0.00 0.00 66 1006.9
20260505115317 37 295 0.0 0.0 0.00 0.00 0.00 66 1007.0
20260505114814 37 298 0.0 0.0 0.00 0.00 0.00 65 1006.9
20260505114317 37 293 0.0 0.0 0.00 0.00 0.00 66 1006.8
20260505113833 36 288 0.0 0.0 0.00 0.00 0.00 66 1006.8
20260505113320 36 299 0.0 0.0 0.00 0.00 0.00 66 1006.6
20260505112822 36 334 0.0 0.0 0.00 0.00 0.00 66 1006.6
20260505112338 36 303 0.0 0.0 0.00 0.00 0.00 67 1006.6
20260505111826 36 314 0.0 0.0 0.00 0.00 0.00 67 1006.5
20260505111323 36 318 0.0 0.0 0.00 0.00 0.00 68 1006.4
20260505110839 36 291 0.0 0.0 0.00 0.00 0.00 68 1006.4
20260505110331 36 293 0.0 0.0 0.00 0.00 0.00 68 1006.3
20260505101828 38 327 0.0 0.0 0.00 0.00 0.00 68 1005.9
20260505101341 38 321 0.0 0.0 0.00 0.00 0.00 68 1006.0
20260505100845 38 336 0.0 0.0 0.00 0.00 0.00 68 1005.9
20260505100321 38 307 0.0 0.0 0.00 0.00 0.00 68 1006.0
20260505095821 38 320 0.0 0.0 0.00 0.00 0.00 68 1006.0
20260505095340 38 321 0.0 0.0 0.00 0.00 0.00 68 1006.0
20260505094827 38 313 0.0 0.0 0.00 0.00 0.00 68 1006.1
20260505094322 38 319 0.0 1.0 0.00 0.00 0.00 68 1006.1
20260505093834 38 289 0.0 1.0 0.00 0.00 0.00 67 1006.0
20260505093322 38 311 0.0 1.0 0.00 0.00 0.00 67 1006.0
20260505092819 38 302 0.0 0.0 0.00 0.00 0.00 67 1005.9
20260505092332 38 308 0.0 0.0 0.00 0.00 0.00 67 1005.9
20260505091827 39 312 0.0 0.0 0.00 0.00 0.00 67 1005.9
20260505091330 39 296 0.0 0.0 0.00 0.00 0.00 67 1005.8
20260505090847 39 317 0.0 0.0 0.00 0.00 0.00 66 1005.8
20260505090403 39 325 0.0 0.0 0.00 0.00 0.00 66 1005.6
20260505085826 39 330 0.0 1.0 0.00 0.00 0.00 65 1005.5
20260505085313 39 304 0.0 1.0 0.00 0.00 0.00 65 1005.4
20260505084829 39 334 0.0 0.0 0.00 0.00 0.00 65 1005.4
20260505084352 39 338 0.0 0.0 0.00 0.00 0.00 65 1005.3
20260505083819 40 313 0.0 0.0 0.00 0.00 0.00 65 1005.3
20260505083316 40 274 0.0 5.0 0.00 0.00 0.00 64 1005.1
20260505082818 39 314 0.0 5.0 0.00 0.00 0.00 64 1005.2
20260505082335 39 336 0.0 0.0 0.00 0.00 0.00 64 1005.2
20260505081822 40 302 0.0 1.0 0.00 0.00 0.00 63 1005.1
20260505081346 40 305 0.0 1.0 0.00 0.00 0.00 63 1005.1
20260505080900 40 309 0.0 1.0 0.00 0.00 0.00 63 1005.0
20260505080327 40 299 0.0 1.0 0.00 0.00 0.00 63 1005.0
20260505075823 40 280 0.0 0.0 0.00 0.00 0.00 62 1005.0
20260505075319 40 302 0.0 0.0 0.00 0.00 0.00 62 1004.9
20260505074857 40 285 0.0 0.0 0.00 0.00 0.00 62 1004.9
20260505074334 40 333 0.0 0.0 0.00 0.00 0.00 61 1004.9
20260505073820 40 300 0.0 0.0 0.00 0.00 0.00 61 1004.9
20260505073316 40 324 0.0 0.0 0.00 0.00 0.00 60 1005.0
20260505072819 41 267 0.0 0.0 0.00 0.00 0.00 59 1004.9
20260505072335 41 279 0.0 0.0 0.00 0.00 0.00 59 1004.9
20260505071822 41 308 0.0 0.0 0.00 0.00 0.00 58 1004.9
20260505071345 41 295 0.0 0.0 0.00 0.00 0.00 57 1004.8
20260505070820 41 318 0.0 0.0 0.00 0.00 0.00 57 1004.8
20260505070353 41 312 0.0 0.0 0.00 0.00 0.00 57 1004.8
20260505065816 42 311 0.0 0.0 0.00 0.00 0.00 57 1004.9
20260505065323 42 309 0.0 2.0 0.00 0.00 0.00 56 1004.9
20260505064819 42 288 0.0 2.0 0.00 0.00 0.00 57 1004.8
20260505064322 42 263 0.0 0.0 0.00 0.00 0.00 56 1004.8
20260505063829 42 280 0.0 2.0 0.00 0.00 0.00 56 1004.8
20260505063326 42 315 0.0 2.0 0.00 0.00 0.00 56 1004.7
20260505062821 42 263 0.0 0.0 0.00 0.00 0.00 56 1004.7
20260505062338 42 283 0.0 1.0 0.00 0.00 0.00 56 1004.7
20260505061826 43 272 0.0 1.0 0.00 0.00 0.00 55 1004.7
20260505061330 43 278 0.0 1.0 0.00 0.00 0.00 55 1004.7
20260505060828 43 286 0.0 1.0 0.00 0.00 0.00 54 1004.7
20260505060332 43 270 0.0 0.0 0.00 0.00 0.00 54 1004.8
20260505055835 43 304 0.0 0.0 0.00 0.00 0.00 54 1004.7
20260505055331 43 292 0.0 4.0 0.00 0.00 0.00 53 1004.7
20260505054827 43 287 0.0 4.0 0.00 0.00 0.00 53 1004.6
20260505054323 44 310 0.0 2.0 0.00 0.00 0.00 52 1004.5
20260505053820 44 284 0.0 1.0 0.00 0.00 0.00 52 1004.5
20260505053352 44 313 0.0 4.0 0.00 0.00 0.00 52 1004.5
20260505052833 44 321 0.0 4.0 0.00 0.00 0.00 52 1004.5
20260505052322 44 304 0.0 5.0 0.00 0.00 0.00 51 1004.5
20260505051839 44 295 0.0 5.0 0.00 0.00 0.00 51 1004.5
20260505051342 44 316 0.0 1.0 0.00 0.00 0.00 51 1004.4
20260505050837 45 303 0.0 2.0 0.00 0.00 0.00 50 1004.2
20260505050324 45 328 0.0 5.0 0.00 0.00 0.00 50 1004.2
20260505041320 45 286 0.0 1.0 0.00 0.00 0.00 50 1004.1
20260505040816 46 320 0.0 0.0 0.00 0.00 0.00 50 1004.1
20260505040324 46 278 0.0 0.0 0.00 0.00 0.00 49 1004.0
20260505035837 46 319 0.0 0.0 0.00 0.00 0.00 49 1004.0
20260505035323 46 306 0.0 0.0 0.00 0.00 0.00 49 1004.0
20260505034840 46 304 0.0 2.0 0.00 0.00 0.00 48 1004.0
20260505034322 46 286 0.0 2.0 0.00 0.00 0.00 48 1003.9
20260505033841 47 297 0.0 2.0 0.00 0.00 0.00 48 1004.0
20260505033327 47 316 0.0 5.0 0.00 0.00 0.00 47 1003.9
20260505032822 47 300 0.0 5.0 0.00 0.00 0.00 48 1003.9
20260505032339 47 304 0.0 4.0 0.00 0.00 0.00 49 1003.9
20260505031826 47 299 0.0 4.0 0.00 0.00 0.00 48 1003.9
20260505031351 47 289 0.0 1.0 0.00 0.00 0.00 48 1003.8
20260505030818 47 304 0.0 2.0 0.00 0.00 0.00 48 1003.9
20260505030314 47 283 0.0 2.0 0.00 0.00 0.00 48 1003.8
20260505025817 47 311 0.0 2.0 0.00 0.00 0.00 48 1003.8
20260505025324 47 254 0.0 1.0 0.00 0.00 0.00 48 1003.7
20260505024821 47 260 0.0 0.0 0.00 0.00 0.00 48 1003.6
20260505024340 47 284 0.0 0.0 0.00 0.00 0.00 47 1003.5
20260505023836 47 304 0.0 1.0 0.00 0.00 0.00 47 1003.6
20260505023323 47 294 0.0 1.0 0.00 0.00 0.00 48 1003.6
20260505022832 47 304 0.0 0.0 0.00 0.00 0.00 47 1003.5
20260505022318 47 285 0.0 0.0 0.00 0.00 0.00 47 1003.5
20260505021834 47 290 0.0 0.0 0.00 0.00 0.00 46 1003.4
20260505021317 47 294 0.0 1.0 0.00 0.00 0.00 46 1003.3
20260505020825 47 288 0.0 1.0 0.00 0.00 0.00 46 1003.3
20260505020321 47 290 0.0 0.0 0.00 0.00 0.00 45 1003.2
20260505015823 48 294 0.0 0.0 0.00 0.00 0.00 45 1003.2
20260505015340 48 290 0.0 0.0 0.00 0.00 0.00 45 1003.1
20260505014848 48 325 0.0 0.0 0.00 0.00 0.00 44 1002.9
20260505014326 48 261 0.0 4.0 0.00 0.00 0.00 44 1003.0
20260505013822 48 276 0.0 4.0 0.00 0.00 0.00 44 1002.8
20260505013358 48 304 0.0 1.0 0.00 0.00 0.00 43 1002.8
20260505012839 48 309 0.0 1.0 0.00 0.00 0.00 42 1002.7
20260505012334 49 263 0.0 4.0 0.00 0.00 0.00 42 1002.6
20260505011822 49 302 0.0 4.0 0.00 0.00 0.00 42 1002.6
20260505011326 49 296 0.0 4.0 0.00 0.00 0.00 42 1002.5
20260505010815 49 321 0.0 5.0 0.00 0.00 0.00 41 1002.4
20260505010331 49 322 0.0 5.0 0.00 0.00 0.00 41 1002.4
20260505005814 50 336 0.0 5.0 0.00 0.00 0.00 42 1002.3
20260505005331 50 313 0.0 5.0 0.00 0.00 0.00 41 1002.3
20260505004818 50 5 0.0 2.0 0.00 0.00 0.00 41 1002.3
20260505004347 50 333 0.0 2.0 0.00 0.00 0.00 41 1002.3
20260505003902 50 296 0.0 2.0 0.00 0.00 0.00 42 1002.3
20260505003328 50 290 0.0 6.0 0.00 0.00 0.00 41 1002.3
20260505002830 50 298 0.0 6.0 0.00 0.00 0.00 40 1002.3
20260505002347 50 337 0.0 6.0 0.00 0.00 0.00 40 1002.2
20260505001814 50 293 1.0 6.0 0.00 0.00 0.00 41 1002.2
20260505001314 50 281 0.0 8.0 0.00 0.00 0.00 40 1002.2
20260505000832 50 322 1.0 8.0 0.00 0.00 0.00 41 1002.2
20260505000345 50 308 1.0 6.0 0.00 0.00 0.00 41 1002.0
20260504235827 50 281 1.0 6.0 0.00 0.00 0.00 42 1002.0
20260504235314 50 290 0.0 7.0 0.00 0.00 0.00 42 1001.9
20260504234831 51 301 0.0 7.0 0.00 0.00 0.00 43 1001.9
20260504234314 51 286 1.0 14.0 0.00 0.00 0.00 42 1001.9
20260504233822 51 307 2.0 14.0 0.00 0.00 0.00 41 1001.8
20260504233318 51 344 0.0 7.0 0.00 0.00 0.00 42 1001.6
20260504232822 52 300 1.0 7.0 0.00 0.00 0.00 41 1001.6
20260504232339 52 300 1.0 5.0 0.00 0.00 0.00 40 1001.4
20260504231827 52 318 1.0 7.0 0.00 0.00 0.00 39 1001.4
20260504231330 53 314 1.0 7.0 0.00 0.00 0.00 39 1001.2
20260504230818 52 323 1.0 6.0 0.00 0.00 0.00 39 1001.2
20260504230314 53 335 1.0 5.0 0.00 0.00 0.00 39 1001.2
20260504225817 53 309 0.0 7.0 0.00 0.00 0.00 39 1001.2
20260504225334 53 327 1.0 7.0 0.00 0.00 0.00 40 1001.1
20260504224821 53 14 1.0 6.0 0.00 0.00 0.00 39 1001.0
20260504224325 53 355 0.0 4.0 0.00 0.00 0.00 39 1000.9